Find STARLINK-37463

NORAD ID: 68854 Int'l Des: 2026-094R Owner: starlink Country: USA Constellation: starlink operational
LEOCIRCULARRETROGRADE

实时位置

正在加载3D地球...

关于 STARLINK-37463

正在加载描述...

即将过境

Passes for default location (London). Set your location on the main map for personalized predictions.

高度历史

Loading altitude history...

两行轨道根数

1 68854U 26094R 26121.83336806 -.01750834 95704-3 -29740-2 0 9993
2 68854 97.2818 135.4417 0001451 58.5993 55.2340 16.02764737 1916
Epoch: May 1, 2026 • Age: 5 hours

当前状态

高度 272.4 km
速度 7.74 km/s
星下点 -1.92°S, 83.76°E
类型 internet

Most Searched